Location: *
(40.4270°N, 9.4940°E)
Time: 10:15:23
(UTC+02:00)

Okean 2 - Visible Passes

Search period start: 26 April 2015 00:00
Search period end: 06 May 2015 00:00
Orbit: 564 x 584 km, 82.5° (Epoch: 26 April)

Date Brightness Start Highest point End Pass type
(mag) Time Alt. Az. Time Alt. Az. Time Alt. Az.
26 Apr 6.4 01:24:02 14° N 01:24:02 14° N 01:24:39 10° N visible
27 Apr 6.4 01:27:10 14° N 01:27:10 14° N 01:27:51 10° N visible
28 Apr 6.3 01:30:17 14° NNW 01:30:17 14° NNW 01:30:58 10° NNW visible
29 Apr 6.4 01:33:23 13° NNW 01:33:23 13° NNW 01:34:00 10° NNW visible
30 Apr 6.2 00:00:16 12° NNE 00:00:16 12° NNE 00:00:40 10° NNE visible
30 Apr 6.4 01:36:28 12° NNW 01:36:28 12° NNW 01:36:53 10° NNW visible
01 May 6.0 00:03:19 15° NNE 00:03:19 15° NNE 00:04:08 10° NNE visible
01 May 6.5 01:39:32 10° NW 01:39:32 10° NW 01:39:34 10° NW visible
02 May 5.9 00:06:22 18° NNE 00:06:22 18° NNE 00:07:30 10° NNE visible
03 May 5.7 00:09:23 21° N 00:09:23 21° N 00:10:49 10° N visible
04 May 5.6 00:12:23 24° N 00:12:23 24° N 00:14:05 10° N visible
05 May 5.5 00:15:21 26° NNW 00:15:21 26° NNW 00:17:16 10° N visible
05 May 5.9 22:42:06 10° NE 22:42:06 10° NE 22:42:14 10° NE visible
